DW3544 Weather Reports


time (UTC)temp
C
wind
direction
speed
KPH
gust
KPH
rain 1hr
cm
rain 24hr
cm
rain mn
cm
humidity
%
barometer
mb
20260504040006 7 185 4.8 6.4 0.00 0.00 0.00 59 1014.8
20260504035502 8 184 4.8 6.4 0.00 0.00 0.00 58 1014.9
20260504035004 8 183 3.2 6.4 0.00 0.00 0.00 56 1014.8
20260504034502 8 183 1.6 4.8 0.00 0.00 0.00 54 1014.9
20260504034003 8 182 1.6 4.8 0.00 0.00 0.00 55 1014.8
20260504033003 8 182 1.6 3.2 0.00 0.00 0.00 53 1014.5
20260504032503 8 182 1.6 3.2 0.00 0.00 0.00 54 1014.6
20260504032003 7 182 1.6 3.2 0.00 0.00 0.00 52 1014.6
20260504031503 7 182 1.6 3.2 0.00 0.00 0.00 53 1014.8
20260504031003 7 182 1.6 3.2 0.00 0.00 0.00 54 1014.9
20260504030502 7 182 1.6 4.8 0.00 0.00 0.00 54 1014.9
20260504030003 7 182 1.6 4.8 0.00 0.00 0.00 53 1014.8
20260504025502 7 182 1.6 4.8 0.00 0.00 0.00 54 1014.6
20260504025003 7 182 0.0 3.2 0.00 0.00 0.00 53 1014.5
20260504024004 7 182 0.0 1.6 0.00 0.00 0.00 50 1014.7
20260504023502 7 182 1.6 3.2 0.00 0.00 0.00 50 1014.7
20260504022503 7 182 0.0 3.2 0.00 0.00 0.00 50 1014.7
20260504022003 8 182 1.6 3.2 0.00 0.00 0.00 49 1014.5
20260504021502 8 193 3.2 9.7 0.00 0.00 0.00 49 1014.4
20260504020003 8 292 1.6 6.4 0.00 0.00 0.00 49 1014.4
20260504015502 8 349 1.6 4.8 0.00 0.00 0.00 49 1014.4
20260504014503 8 350 1.6 4.8 0.00 0.00 0.00 45 1014.3
20260504014002 8 350 1.6 3.2 0.00 0.00 0.00 46 1014.3
20260504013004 8 350 1.6 3.2 0.00 0.00 0.00 46 1014.1
20260504012503 8 350 1.6 4.8 0.00 0.00 0.00 46 1014.1
20260504012003 8 349 1.6 4.8 0.00 0.00 0.00 46 1014.0
20260504011503 8 348 1.6 3.2 0.00 0.00 0.00 46 1013.9
20260504010503 8 342 1.6 3.2 0.00 0.00 0.00 47 1013.9
20260504010003 9 341 0.0 3.2 0.00 0.00 0.00 46 1014.0
20260504004501 10 341 1.6 3.2 0.00 0.00 0.00 45 1013.9
20260504004002 10 341 1.6 3.2 0.00 0.00 0.00 45 1013.8
20260504003502 10 341 1.6 3.2 0.00 0.00 0.00 45 1013.7
20260504002503 11 341 1.6 3.2 0.00 0.00 0.00 47 1013.7
20260504002003 11 341 1.6 3.2 0.00 0.00 0.00 46 1013.8
20260504001502 12 341 1.6 3.2 0.00 0.00 0.00 43 1013.8
20260504000501 13 341 1.6 3.2 0.00 0.00 0.00 40 1013.7
20260504000002 13 341 1.6 3.2 0.00 0.00 0.00 40 1013.7
20260503235502 15 341 1.6 3.2 0.00 0.00 0.00 38 1013.7
20260503235002 16 341 0.0 3.2 0.00 0.00 0.00 34 1013.7
20260503234502 16 341 0.0 3.2 0.00 0.00 0.00 26 1013.6
20260503233002 16 341 1.6 3.2 0.00 0.00 0.00 26 1013.6
20260503232502 16 341 1.6 3.2 0.00 0.00 0.00 28 1013.6
20260503232003 16 342 1.6 4.8 0.00 0.00 0.00 26 1013.5
20260503231502 16 342 3.2 4.8 0.00 0.00 0.00 29 1013.5
20260503230502 17 345 3.2 6.4 0.00 0.00 0.00 27 1013.5
20260503225503 17 329 1.6 4.8 0.00 0.00 0.00 29 1013.4
20260503225003 16 306 3.2 6.4 0.00 0.00 0.00 28 1013.4
20260503224003 16 276 4.8 12.9 0.00 0.00 0.00 27 1013.4
20260503223003 16 324 4.8 12.9 0.00 0.00 0.00 25 1013.4
20260503222502 16 314 6.4 14.5 0.00 0.00 0.00 26 1013.4
20260503222004 16 310 6.4 16.1 0.00 0.00 0.00 28 1013.4
20260503221003 16 306 9.7 16.1 0.00 0.00 0.00 29 1013.5
20260503220502 16 307 11.3 19.3 0.00 0.00 0.00 27 1013.5
20260503220004 16 279 12.9 25.7 0.00 0.00 0.00 25 1013.6
20260503215503 16 263 14.5 25.7 0.00 0.00 0.00 25 1013.4
20260503215003 16 271 14.5 25.7 0.00 0.00 0.00 25 1013.6
20260503214503 16 267 12.9 20.9 0.00 0.00 0.00 25 1013.5
20260503213502 16 302 6.4 19.3 0.00 0.00 0.00 29 1013.6
20260503212502 16 273 9.7 17.7 0.00 0.00 0.00 28 1013.6
20260503212003 16 272 11.3 25.7 0.00 0.00 0.00 25 1013.7
20260503211502 16 279 14.5 25.7 0.00 0.00 0.00 26 1013.7
20260503210502 16 273 14.5 30.6 0.00 0.00 0.00 27 1013.8
20260503210003 16 278 14.5 30.6 0.00 0.00 0.00 27 1013.8
20260503205003 16 291 9.7 20.9 0.00 0.00 0.00 27 1013.7
20260503204502 16 267 11.3 20.9 0.00 0.00 0.00 29 1013.8
20260503204003 16 262 11.3 19.3 0.00 0.00 0.00 30 1013.8
20260503203502 16 278 12.9 20.9 0.00 0.00 0.00 28 1013.9
20260503203003 16 278 11.3 20.9 0.00 0.00 0.00 28 1013.9
20260503202502 16 277 6.4 20.9 0.00 0.00 0.00 27 1013.9
20260503202003 16 327 6.4 19.3 0.00 0.00 0.00 27 1014.1
20260503201502 15 344 6.4 20.9 0.00 0.00 0.00 29 1014.3
20260503201002 15 299 11.3 20.9 0.00 0.00 0.00 28 1014.1
20260503200501 15 280 11.3 27.4 0.00 0.00 0.00 32 1014.2
20260503200003 15 275 11.3 27.4 0.00 0.00 0.00 28 1014.3
20260503195501 15 277 12.9 29.0 0.00 0.00 0.00 33 1014.4
20260503195003 15 276 14.5 29.0 0.00 0.00 0.00 28 1014.5
20260503194502 15 278 16.1 27.4 0.00 0.00 0.00 27 1014.4
20260503194003 15 278 16.1 27.4 0.00 0.00 0.00 30 1014.5
20260503193002 15 264 14.5 29.0 0.00 0.00 0.00 28 1014.7
20260503192502 15 255 12.9 25.7 0.00 0.00 0.00 30 1014.8
20260503192003 15 270 9.7 25.7 0.00 0.00 0.00 32 1014.9
20260503191502 15 295 6.4 17.7 0.00 0.00 0.00 31 1015.1
20260503191003 15 256 12.9 32.2 0.00 0.00 0.00 33 1015.2
20260503190502 15 250 12.9 32.2 0.00 0.00 0.00 32 1015.3
20260503190003 15 275 9.7 25.7 0.00 0.00 0.00 34 1015.2
20260503185502 15 266 9.7 20.9 0.00 0.00 0.00 32 1015.3
20260503185004 14 250 9.7 20.9 0.00 0.00 0.00 35 1015.4
20260503184502 13 260 12.9 24.1 0.00 0.00 0.00 37 1015.4
20260503184003 13 254 14.5 24.1 0.00 0.00 0.00 35 1015.6
20260503183502 14 268 14.5 24.1 0.00 0.00 0.00 40 1015.6
20260503182502 14 261 12.9 27.4 0.00 0.00 0.00 35 1015.7
20260503181503 14 295 11.3 17.7 0.00 0.00 0.00 37 1015.5
20260503181002 13 283 12.9 27.4 0.00 0.00 0.00 35 1015.6
20260503180003 13 296 11.3 29.0 0.00 0.00 0.00 36 1015.7
20260503175502 13 312 9.7 29.0 0.00 0.00 0.00 37 1015.7
20260503175002 13 315 11.3 25.7 0.00 0.00 0.00 35 1015.7
20260503174503 13 306 14.5 25.7 0.00 0.00 0.00 33 1015.7
20260503174003 13 285 14.5 25.7 0.00 0.00 0.00 36 1015.8
20260503173502 13 244 12.9 30.6 0.00 0.00 0.00 37 1015.7
20260503173004 13 233 11.3 30.6 0.00 0.00 0.00 40 1015.7
20260503172502 13 240 11.3 25.7 0.00 0.00 0.00 40 1015.8
20260503172003 12 232 11.3 25.7 0.00 0.00 0.00 41 1015.9
20260503171002 12 253 11.3 24.1 0.00 0.00 0.00 36 1016.0
20260503170502 12 275 11.3 20.9 0.00 0.00 0.00 35 1016.0
20260503151002 10 299 11.3 19.3 0.00 0.00 0.00 41 1017.1
20260503150502 10 305 9.7 20.9 0.00 0.00 0.00 45 1017.3
20260503131004 7 313 9.7 19.3 0.00 0.00 0.00 49 1017.1
20260503130502 7 310 9.7 17.7 0.00 0.00 0.00 51 1017.0
20260503110502 4 266 3.2 4.8 0.00 0.00 0.00 63 1016.2
20260503081503 5 293 6.4 16.1 0.00 0.00 0.00 58 1014.5
20260503081004 5 288 6.4 16.1 0.00 0.00 0.00 60 1014.6
20260503072504 5 305 3.2 6.4 0.00 0.00 0.00 61 1014.3
20260503072003 5 311 3.2 6.4 0.00 0.00 0.00 61 1014.2
20260503071502 5 303 3.2 12.9 0.00 0.00 0.00 61 1014.1
20260503071003 5 302 4.8 16.1 0.00 0.00 0.00 61 1014.1
20260503070502 5 314 4.8 16.1 0.00 0.00 0.00 60 1014.1
20260503055003 5 278 1.6 4.8 0.00 0.00 0.00 63 1013.9
20260503054503 5 279 1.6 3.2 0.00 0.00 0.00 61 1013.9
20260503054003 5 276 3.2 9.7 0.00 0.00 0.00 61 1013.8
20260503053503 6 279 3.2 9.7 0.00 0.00 0.00 61 1013.8
20260503053003 6 310 1.6 12.9 0.00 0.00 0.00 61 1013.9
20260503052004 6 28 3.2 6.4 0.00 0.00 0.00 60 1013.9
20260503051504 6 14 1.6 6.4 0.00 0.00 0.00 60 1013.9
20260503051003 6 333 1.6 3.2 0.00 0.00 0.00 59 1013.9
20260503050503 6 331 1.6 9.7 0.00 0.00 0.00 59 1014.0
20260503050003 6 329 3.2 9.7 0.00 0.00 0.00 58 1013.9
20260503045502 6 1 3.2 9.7 0.00 0.00 0.00 58 1014.1
20260503045003 7 41 3.2 9.7 0.00 0.00 0.00 58 1014.1
20260503044503 7 325 3.2 14.5 0.00 0.00 0.00 58 1014.1
20260503044004 7 309 4.8 14.5 0.00 0.00 0.00 57 1014.2
20260503043502 7 310 4.8 16.1 0.00 0.00 0.00 57 1014.1
20260503042503 7 300 6.4 14.5 0.00 0.00 0.00 56 1014.0
20260503042003 7 297 4.8 12.9 0.00 0.00 0.00 56 1014.0
20260503041503 7 298 4.8 11.3 0.00 0.00 0.00 56 1013.9
20260503040502 7 284 4.8 14.5 0.00 0.00 0.00 56 1013.8